Location: McNierney
(34.1937°N, 106.9061°W)
Time: 00:50:33
(UTC+00:00)

IRIDIUM 114 - Pass Details

Date: 11 December 2025
Orbit: 776 x 779 km, 86.4° (Epoch: 17 January)

Event Time Altitude Azimuth Distance (km) Brightness Sun altitude
Rises 12:57:34 0° 181° (S) 3,245 7.8 -13.4°
Reaches altitude 10° 12:59:54 10° 182° (S) 2,321 7.0 -12.9°
Maximum altitude 13:05:07 86° 271° (W) 786 4.3 -11.9°
Drops below altitude 10° 13:10:22 10° 1° (N) 2,336 6.6 -10.9°
Sets 13:12:43 0° 2° (N) 3,268 7.4 -10.4°
